www.pogodaiklimat.ru

Погода и климат >> Архив погоды >> Канада >> Манитоба >> Дауфин аэропорт


ПОГОДА в Дауфин аэропорту

  • Прогноз погоды в Дауфин аэропорту
  • Монитор погоды в Дауфин аэропорту

АРХИВ ПОГОДЫ в Дауфин аэропорту

Время (UTC), дата Ветер
(напр.,м/с)
 
Видим.   Явления Облачность Т
(С)
Тd
(С)
f
(%)
Тe
(С)
Тes
(С)
Комфортность P
(гПа)
Po
(гПа)
Тmin
(С)
Tmax
(С)
R
(мм)
R24
(мм)
S
(см)
15 12.01 ЮВ 2 16 км 10/10 600 м
[]
-13.0 -14.3 90 -17 -17 1031.5 991.9
18 12.01 ЮВ 2 16 км 10/10 600 м
[]
-10.3 -12.1 87 -15 -15 1030.7 991.3 -15.3 -10.3
21 12.01 ЮЗ 6 16 км 10/10 600 м
[]
-6.5 -9.6 79 -14 -14 1027.6 988.5
00 13.01 ЮЗ 3 16 км 5/0
[]
-8.5 -11.0 82 -14 -14 1025.9 986.8 -15.1 -6.3
03 13.01 ЮЗ 4 16 км 10/0
[]
-8.1 -10.8 81 -15 -15 1024.1 985.1
06 13.01 ЮЗ 5 16 км ясно -8.0 -10.7 81 -16 -16 1023.2 984.4 -15.1 -6.3 22
09 13.01 ЮЗ 4 16 км ясно -8.3 -10.7 83 -15 -15 1022.7 984.1
12 13.01 З 4 16 км ясно -9.2 -11.2 85 -16 -16 1022.9 984.1 -11.2 -6.3
15 13.01 З 4 16 км 10/0
[]
-7.7 -10.1 83 -14 -14 1023.5 984.8
18 13.01 З 2 16 км 10/0 2000 м
[]
-7.2 -9.9 81 -12 -11 1024.5 985.8 -11.2 -7.1
21 13.01 СЗ 2 16 км 10/10 600 м
[]
-5.2 -9.3 73 -9 -9 1025.5 986.8
00 14.01 С 2 16 км 10/10 300 м
[]
-6.3 -8.7 83 -10 -10 1026.4 987.6 -11.2 -5.1
03 14.01 ЮЗ 1 14 км 10/0
[]
-6.6 -7.7 92 -7 -7 1027.0 988.2
06 14.01 С 1 16 км 10/10 300 м
[]
-7.2 -7.9 95 -10 -10 1028.5 989.7 -11.2 -5.1 14
09 14.01 СВ 3 16 км 10/10 200 м
[]
-10.0 -10.5 96 -16 -16 1029.9 991.0
12 14.01 СВ 3 16 км 10/10 200 м
[]
-10.4 -10.7 98 -16 -16 1030.0 991.0 -10.4 -5.1
15 14.01 ЮВ 1 16 км слаб. снег 10/10 100 м
[]
-10.7 -11.0 98 -13 -13 1029.4 990.4
18 14.01 З 1 16 км 10/10 100 м
[]
-10.1 -10.6 96 -13 -13 1028.5 989.5 -10.8 -7.2
21 14.01 ЮВ 4 16 км 10/0 2000 м
[]
-8.7 -9.9 91 -16 -15 1024.4 985.5
00 15.01 СВ 3 16 км 10/0
[]
-8.0 -8.8 94 -13 -13 1019.0 980.3 -10.8 -7.9
03 15.01 З 7 16 км 9/0 2000 м
[]
-1.9 -4.3 84 -9 -9 1014.0 975.8
06 15.01 ЮЗ 9 16 км 10/0
[]
-1.1 -4.1 80 -9 -9 1010.0 972.0 -10.8 0.0 31
09 15.01 З 9 16 км 10/0 2000 м
[]
-2.2 -4.6 84 -11 -11 1010.1 972.1
12 15.01 С 12 14 км 10/10 300 м
[]
-5.9 -8.1 84 -17 -17 1013.3 975.1 -8.2 0.0
15 15.01 С 9 16 км 3/3 600 м
[]
-15.3 -18.3 78 -27 -27 1022.5 983.8
18 15.01 С 7 16 км 9/9 600 м
[]
-17.0 -20.6 74 -28 -28 1027.5 988.5 -17.1 -0.7
21 15.01 С 5 16 км ясно -16.5 -21.3 66 -25 -25 1028.9 989.9
00 16.01 С 2 16 км ясно -19.6 -22.7 76 -24 -24 1032.2 992.7 -19.7 -5.9
03 16.01 З 2 16 км ясно -22.4 -24.6 82 -27 -27 1033.1 993.0
06 16.01 З 2 16 км ясно -25.9 -28.4 79 -33 -33 опасность
обморожения
1033.8 993.4 -25.9 -0.7 132
09 16.01 З 2 16 км ясно -26.4 -29.0 79 -32 -32 опасность
обморожения
1032.8 992.5
12 16.01 З 3 16 км 5/0
[]
-26.8 -29.6 77 -35 -35 опасность
обморожения
1032.2 991.7 -27.1 -0.7
15 16.01 Ю 1 16 км ясно -26.4 -29.0 79 -30 -30 1031.9 991.3
18 16.01 С 2 16 км ясно -21.4 -25.5 69 -26 -24 1030.7 990.2 -27.1 -21.4
21 16.01 СЗ 1 16 км 10/0
[]
-19.5 -24.2 66 -20 -20 1028.8 988.5
00 17.01 В 2 16 км 10/10 600 м
[]
-18.5 -22.0 74 -24 -24 1028.1 987.8 -27.1 -18.5
03 17.01 В 1 16 км 10/10 600 м
[]
-17.6 -22.7 64 -18 -18 1027.1 986.9
06 17.01 СЗ 1 16 км 10/10 600 м
[]
-18.4 -21.7 75 -21 -21 1026.9 987.0 -27.1 -17.5
09 17.01 З 2 9000 м слаб. снег 10/10 1000 м
[]
-18.1 -20.9 79 -23 -23 1026.8 987.0
12 17.01 З 2 6000 м слаб. снег 10/10 1000 м
[]
-17.8 -19.8 84 -23 -23 1026.9 987.1 -18.5 -17.5
15 17.01 ЮЗ 5 16 км ясно -22.1 -24.0 84 -32 -32 опасность
обморожения
1026.9 987.0
18 17.01 З 4 16 км ясно -19.0 -22.9 71 -27 -26 1027.2 987.4 -23.4 -17.8
21 17.01 В 1 16 км ясно -19.8 -23.5 72 -20 -19 1025.9 986.1
00 18.01 СВ 2 16 км ясно -23.8 -27.0 75 -29 -29 1027.6 987.5 -24.1 -17.8
03 18.01 З 2 16 км ясно -28.8 -31.5 77 -36 -36 опасность
обморожения
1029.4 988.8
06 18.01 З 3 16 км ясно -29.0 -31.6 78 -38 -38 опасность
обморожения
1031.8 991.2 -30.7 -17.8
09 18.01 С 3 16 км ясно -27.7 -30.2 79 -36 -36 опасность
обморожения
1032.9 992.3
12 18.01 З 2 16 км ясно -31.4 -34.5 74 -39 -39 опасность
обморожения
1034.2 993.2 -31.7 -17.8
15 18.01 З 3 16 км ясно -31.4 -34.6 73 -40 -40 опасность
обморожения
1036.3 994.9
18 18.01 З 3 16 км ясно -26.9 -30.1 74 -35 -33 опасность
обморожения
1037.3 996.1 -31.9 -26.9
21 18.01 З 3 16 км ясно -23.8 -28.7 64 -32 -31 опасность
обморожения
1035.9 995.0
00 19.01 ЮЗ 4 16 км ясно -25.0 -29.3 67 -35 -35 опасность
обморожения
1036.2 995.0 -31.9 -23.8
03 19.01 З 5 16 км ясно -25.0 -29.0 69 -36 -36 опасность
обморожения
1035.4 994.3
06 19.01 З 5 16 км ясно -25.2 -29.4 68 -36 -36 опасность
обморожения
1035.9 995.0 -31.9 -23.8
09 19.01 З 5 16 км ясно -27.0 -30.6 71 -38 -38 опасность
обморожения
1036.0 995.1
12 19.01 З 3 16 км ясно -29.8 -33.0 74 -40 -40 опасность
обморожения
1036.2 995.1 -29.8 -23.8

 

Местоположение метеостанции Дауфин аэропорт (Манитоба, Канада): широта 51.10 долгота -100.05 высота над уровнем моря 305 м.

В архиве по умолчанию представлена погода в Дауфин аэропорту за последнюю неделю. Архивные данные за месяц целиком и за предыдущие месяцы, начиная с января 2011 года, Вы можете получить, выбрав интересующий диапазон дат из раскрывающегося списка и нажав кнопку "Ввод!".


*Определитесь, кто Вы:
робот инопланетянин человек

Внимание! Время в таблицах - всемирное. Для получения местного времени необходимо прибавить поправку, которая равна -8 ч.

Смотрите также архив погоды в соседних городах и на ближайших метеорологических станциях:

Погода в Дауфине (Манитоба, Канада) (3 км)
Погода в Васагаминге (Манитоба, Канада) (51 км)
Погода в Уилсон Крик (Манитоба, Канада) (56 км)
Погода в Шол Лейк (Манитоба, Канада) (82 км)
Погода в Роблине (Манитоба, Канада) (88 км)
Погода в Туллиби Лейк (Альберта, Канада) (110 км)
Погода в Брандон аэропорту (Манитоба, Канада) (131 км)
Погода в Брандоне (Манитоба, Канада) (134 км)
Погода в Суон Ривер (Манитоба, Канада) (138 км)
Погода в Карберри (Манитоба, Канада) (142 км)

Пояснения к столбцам:

Ветер - указаны скорость ветра в м/с - средняя за 10 мин, порывы в срок и между сроками (в фигурных скобках) и направление, откуда дует ветер: С - северный, СВ - северо-восточный, В - восточный, ЮВ - юго-восточный, Ю - южный, ЮЗ - юго-западный, З - западный, СЗ - северо-западный.
Видимость - горизонтальная дальность видимости в метрах или километрах. При видимости от 1 до 10 км при отсутствии осадков обычно наблюдается дымка, при ухудшении видимости до 1 км и менее - туман. В сухую погоду видимость может ухудшаться дымом, пылью или мглою.
Явления - указаны атмосферные явления, наблюдавшиеся в срок или в последний час перед сроком; фигурными скобками обозначены явления, наблюдавшиеся между сроками (за 1-3 часа до срока); квадратными скобками обозначены град или гололедные отложения с указанием их диаметра в мм.
Облачность - указаны через наклонную черту общая и нижняя облачность в баллах и высота нижней границы облаков в метрах; квадратными скобками обозначены формы облаков: Ci - перистые, Cs - перисто-слоистые, Cc - перисто-кучевые, Ac - высококучевые, As - высокослоистые, Sc - слоисто-кучевые, Ns - слоисто-дождевые, Cu - кучевые, Cb - кучево-дождевые. Подробнее классификацию облаков см. в Атласе облаков (PDF).
T - Температура воздуха - температура, измеренная на высоте 2 м над землей.
Td - Температура точки росы - температура, при понижении до которой содержащийся в воздухе водяной пар достигнет насыщения.
f - Относительная влажность воздуха - влажноcть воздуха, измеренная на высоте 2 м над землей.
Te - Эффективная температура - температура, которую ощущает одетый по сезону человек в тени. Характеристика душности погоды. При расчете учитывается влияние влажности воздуха и скорости ветра на теплоощущения человека.
Tes - Эффективная температура на солнце - температура, которую ощущает человек, с поправкой на солнечный нагрев. Характеристика знойности погоды. Зависит от высоты солнца над горизонтом, облачности и скорости ветра. Ночью, в пасмурную погоду, а также при ветре 12 м/с и более поправка равна нулю.
P - Атмосферное давление - приведенное к уровню моря атмосферное давление.
Po - Атмосферное давление - измеренное на уровне метеостанции атмосферное давление.
Tmin - Минимальная температура - минимум температуры воздуха на высоте 2 м над землей.
Tmax - Максимальная температура - максимум температуры воздуха на высоте 2 м над землей.
R - Количество осадков - Количество выпавших осадков за период времени, мм. При наведении курсора мыши на число - период времени, за который выпало указанное количество осадков.
R24 - Количество осадков - Количество выпавших осадков за 24 часа, мм.
S - Снежный покров - Высота снежного покрова, см. При наведении курсора мыши на число - состояние снежного покрова и степень покрытия местности в баллах.